Location: Unspecified
(0.0000°N, 0.0000°E)
Time: 18:21:35
(UTC+00:00)

Vanguard 1 - Visible Passes

Search period start: 18 January 2020 00:00
Search period end: 28 January 2020 00:00
Orbit: 651 x 3832 km, 34.2° (Epoch: 17 January)

Date Brightness Start Highest point End Pass type
(mag) Time Alt. Az. Time Alt. Az. Time Alt. Az.
18 Jan 13.7 00:32:53 24° E 00:32:53 24° E 00:41:01 10° ESE visible
18 Jan 12.4 02:45:35 80° W 02:47:09 83° SW 03:11:14 10° SE visible
18 Jan 13.5 04:58:18 14° W 05:15:56 39° SSW 05:35:31 10° SSE visible
19 Jan 13.4 00:52:36 34° E 00:52:36 34° E 01:04:08 10° ESE visible
19 Jan 12.5 03:05:18 63° WSW 03:08:55 69° SW 03:32:39 10° SE visible
19 Jan 13.7 05:19:42 10° W 05:38:33 31° SSW 05:56:30 10° SSE visible
20 Jan 13.1 01:12:18 45° ESE 01:12:18 45° ESE 01:26:40 10° ESE visible
20 Jan 12.7 03:24:59 48° WSW 03:30:52 57° SW 03:53:54 10° SE visible
20 Jan 13.8 05:43:58 10° WSW 06:01:31 26° SSW 06:17:37 10° SSE visible
21 Jan 12.8 01:31:56 56° ESE 01:31:56 56° ESE 01:48:46 10° SE visible
21 Jan 13.0 03:44:38 35° WSW 03:53:04 46° SSW 04:15:03 10° SE visible
21 Jan 14.0 23:38:51 11° ESE 23:38:51 11° ESE 23:39:37 10° ESE visible
22 Jan 12.7 01:51:32 64° SSE 01:51:32 64° SSE 02:10:32 10° SE visible
22 Jan 13.3 04:04:14 25° WSW 04:15:33 38° SSW 04:36:12 10° SSE visible
22 Jan 13.8 23:58:25 18° ESE 23:58:25 18° ESE 00:02:45 10° ESE visible
23 Jan 12.6 02:11:06 63° S 02:11:06 63° S 02:32:02 10° SE visible
23 Jan 13.6 04:23:48 15° WSW 04:38:23 31° SSW 04:57:25 10° SSE visible
24 Jan 13.6 00:17:57 26° ESE 00:17:57 26° ESE 00:25:20 10° ESE visible
24 Jan 12.7 02:30:37 54° SSW 02:30:38 54° SSW 02:53:23 10° SE visible
24 Jan 13.8 04:44:47 10° WSW 05:01:34 26° SSW 05:18:52 10° SSE visible
25 Jan 13.3 00:37:26 33° SE 00:37:26 33° SE 00:47:27 10° SE visible
25 Jan 12.9 02:50:07 42° SW 02:52:54 44° SSW 03:14:40 10° SE visible
25 Jan 13.9 05:09:15 10° WSW 05:25:07 22° SSW 05:40:40 10° SSE visible
26 Jan 13.1 00:56:54 40° SE 00:56:54 40° SE 01:09:14 10° SE visible
26 Jan 13.2 03:09:34 31° SW 03:15:28 36° SSW 03:35:58 10° SE visible
26 Jan 14.0 05:33:55 10° SW 05:48:59 20° S 06:03:01 10° SSE visible
27 Jan 13.0 01:16:19 44° SSE 01:16:19 44° SSE 01:30:47 10° SE visible
27 Jan 13.4 03:29:00 22° WSW 03:38:24 29° SSW 03:57:26 10° SSE visible
27 Jan 14.0 23:23:02 12° ESE 23:23:02 12° ESE 23:23:56 10° ESE visible
